Location: Newark
(43.0000°N, 1.6781°W)
Time: 20:42:09
(UTC+00:00)

N. Korean satellite - Visible Passes

Search period start: 03 December 2021 00:00
Search period end: 13 December 2021 00:00
Orbit: 447 x 495 km, 97.3° (Epoch: 03 December)

Date Brightness Start Highest point End Pass type
(mag) Time Alt. Az. Time Alt. Az. Time Alt. Az.
03 Dec 6.5 05:20:44 10° NNE 05:24:08 75° E 05:27:30 10° S visible
03 Dec 9.7 17:29:42 10° SW 17:32:03 17° W 17:34:24 10° NW visible
04 Dec 8.4 04:52:33 10° NE 04:55:34 29° E 04:58:33 10° SSE visible
04 Dec 8.0 06:26:26 10° NNW 06:28:31 15° WNW 06:30:35 10° WSW visible
04 Dec 8.3 17:00:06 10° SSW 17:03:25 37° W 17:06:41 10° NNW visible
05 Dec 9.7 04:25:10 10° ENE 04:26:52 13° E 04:28:33 10° ESE visible
05 Dec 7.0 05:57:06 10° N 06:00:11 33° WNW 06:03:15 10° SW visible
06 Dec 6.2 05:28:21 10° N 05:31:44 84° WNW 05:35:07 10° SSW visible
06 Dec 9.8 17:37:56 10° WSW 17:39:44 13° W 17:41:31 10° WNW visible
07 Dec 7.9 05:00:00 10° NNE 05:03:10 37° E 05:06:20 10° SSE visible
07 Dec 8.2 06:34:28 10° NW 06:36:01 13° WNW 06:37:35 10° W visible
07 Dec 8.8 17:07:55 10° SSW 17:11:01 29° W 17:14:07 10° NW visible
08 Dec 9.4 04:32:15 10° NE 04:34:29 16° E 04:36:42 10° SE visible
08 Dec 7.3 06:04:48 10° NNW 06:07:42 27° WNW 06:10:35 10° SW visible
09 Dec 6.3 05:35:53 10° N 05:39:15 65° WNW 05:42:36 10° SSW visible
09 Dec 10.2 17:46:32 10° WSW 17:47:19 11° W 17:48:07 10° WNW visible
10 Dec 7.3 05:09:37 34° NE 05:10:41 47° E 05:13:58 10° S visible
10 Dec 8.4 06:43:45 10° WNW 06:43:45 10° WNW 06:44:04 10° WNW visible
10 Dec 9.2 17:15:42 10° SSW 17:18:33 23° W 17:21:23 10° NW visible
11 Dec 9.0 04:41:34 20° E 04:42:00 20° E 04:44:36 10° SE visible
11 Dec 7.7 06:15:41 21° W 06:15:41 21° W 06:17:48 10° WSW visible
12 Dec 6.8 05:47:19 43° WSW 05:47:19 43° WSW 05:49:59 10° SSW visible
